When you browse on this site, cookies collect data to enhance your experience and personalize the content and advertising you see.
Visit our Privacy Policy to learn more. By continuing to use the site, you agree to this use of cookies and data.
  • In Österreich
  • Länderverzeichnis
  • Für 7 Tage
  • Wassertemperatur
  • Satellitenkarten
  • Wetterkarte
  • News
  • Widgets
  • user-avatar
    Anmelden

    Stündliche Wetter Superior

    Heute, 18 April, Donnerstag

    Zeit Temperatur Niederschläge Wind Luftdruck Luftfeuchtigkeit
    00:00 +2°C° 0 mm 5 m/S 737 mmHg 86%
    01:00 +3°C° 0 mm 4 m/S 737 mmHg 87%
    02:00 +3°C° 0 mm 4 m/S 737 mmHg 88%
    03:00 +3°C° 0 mm 3 m/S 737 mmHg 89%
    04:00 +3°C° 0 mm 3 m/S 738 mmHg 90%
    05:00 +3°C° 0 mm 3 m/S 738 mmHg 90%
    06:00 +2°C° 0 mm 3 m/S 738 mmHg 91%
    07:00 +4°C° 0 mm 3 m/S 739 mmHg 85%
    08:00 +7°C° 0 mm 3 m/S 739 mmHg 79%
    09:00 +8°C° 0 mm 3 m/S 739 mmHg 72%
    10:00 +8°C° 0.2 mm 4 m/S 739 mmHg 72%
    11:00 +8°C° 0.2 mm 4 m/S 740 mmHg 73%
    12:00 +10°C° 0.2 mm 4 m/S 740 mmHg 73%
    13:00 +10°C° 0.1 mm 4 m/S 740 mmHg 69%
    14:00 +11°C° 0.1 mm 4 m/S 741 mmHg 65%
    15:00 +12°C° 0.1 mm 4 m/S 741 mmHg 61%
    16:00 +11°C° 0.1 mm 4 m/S 741 mmHg 63%
    17:00 +11°C° 0.1 mm 3 m/S 742 mmHg 65%
    18:00 +10°C° 0.1 mm 2 m/S 742 mmHg 67%
    19:00 +9°C° 0 mm 2 m/S 743 mmHg 73%
    20:00 +7°C° 0 mm 2 m/S 743 mmHg 79%
    21:00 +6°C° 0 mm 2 m/S 744 mmHg 85%
    22:00 +5°C° 0 mm 2 m/S 744 mmHg 85%
    23:00 +4°C° 0 mm 2 m/S 744 mmHg 86%

    Morgen, 19 April, Freitag

    Zeit Temperatur Niederschläge Wind Luftdruck Luftfeuchtigkeit
    00:00 +4°C° 0 mm 2 m/S 744 mmHg 87%
    01:00 +4°C° 0 mm 2 m/S 744 mmHg 87%
    02:00 +3°C° 0 mm 2 m/S 745 mmHg 88%
    03:00 +4°C° 0 mm 1 m/S 745 mmHg 88%
    04:00 +3°C° 0 mm 2 m/S 745 mmHg 88%
    05:00 +3°C° 0 mm 2 m/S 745 mmHg 88%
    06:00 +3°C° 0 mm 2 m/S 745 mmHg 88%
    07:00 +5°C° 0 mm 2 m/S 745 mmHg 77%
    08:00 +8°C° 0 mm 2 m/S 745 mmHg 66%
    09:00 +12°C° 0 mm 1 m/S 744 mmHg 56%
    10:00 +14°C° 0 mm 1 m/S 744 mmHg 49%
    11:00 +16°C° 0 mm 1 m/S 744 mmHg 43%
    12:00 +19°C° 0 mm 1 m/S 744 mmHg 36%
    13:00 +19°C° 0 mm 1 m/S 743 mmHg 35%
    14:00 +19°C° 0 mm 1 m/S 743 mmHg 35%
    15:00 +19°C° 0 mm 1 m/S 742 mmHg 34%
    16:00 +18°C° 0 mm 1 m/S 742 mmHg 37%
    17:00 +16°C° 0 mm 1 m/S 742 mmHg 41%
    18:00 +15°C° 0 mm 1 m/S 742 mmHg 44%
    19:00 +13°C° 0 mm 2 m/S 742 mmHg 50%
    20:00 +10°C° 0 mm 2 m/S 742 mmHg 55%
    21:00 +8°C° 0 mm 2 m/S 742 mmHg 61%
    22:00 +8°C° 0 mm 2 m/S 742 mmHg 63%
    23:00 +7°C° 0 mm 2 m/S 742 mmHg 65%

    übermorgen, 20 April, Samstag

    Zeit Temperatur Niederschläge Wind Luftdruck Luftfeuchtigkeit
    00:00 +7°C° 0 mm 2 m/S 741 mmHg 68%
    01:00 +7°C° 0 mm 2 m/S 741 mmHg 68%
    02:00 +5°C° 0 mm 3 m/S 741 mmHg 68%
    03:00 +5°C° 0 mm 3 m/S 740 mmHg 69%
    04:00 +5°C° 0 mm 3 m/S 740 mmHg 68%
    05:00 +5°C° 0 mm 3 m/S 740 mmHg 68%
    06:00 +5°C° 0 mm 3 m/S 740 mmHg 68%
    07:00 +7°C° 0 mm 4 m/S 740 mmHg 61%
    08:00 +11°C° 0 mm 4 m/S 739 mmHg 54%
    09:00 +13°C° 0 mm 5 m/S 738 mmHg 46%
    10:00 +15°C° 0 mm 5 m/S 738 mmHg 43%
    11:00 +17°C° 0 mm 5 m/S 737 mmHg 40%
    12:00 +20°C° 0 mm 5 m/S 737 mmHg 37%
    13:00 +20°C° 0 mm 5 m/S 736 mmHg 37%
    14:00 +21°C° 0 mm 5 m/S 735 mmHg 37%
    15:00 +22°C° 0 mm 5 m/S 734 mmHg 38%
    16:00 +21°C° 0 mm 4 m/S 734 mmHg 42%
    17:00 +20°C° 0 mm 3 m/S 734 mmHg 47%
    18:00 +20°C° 0 mm 3 m/S 733 mmHg 51%
    19:00 +18°C° 0 mm 2 m/S 734 mmHg 58%
    20:00 +17°C° 0 mm 2 m/S 734 mmHg 65%
    21:00 +15°C° 0 mm 2 m/S 734 mmHg 72%
    22:00 +14°C° 0 mm 3 m/S 734 mmHg 76%
    23:00 +13°C° 0 mm 3 m/S 735 mmHg 81%

    21 April, Sonntag

    Zeit Temperatur Niederschläge Wind Luftdruck Luftfeuchtigkeit
    00:00 +13°C° 0 mm 4 m/S 735 mmHg 85%
    01:00 +12°C° 0 mm 4 m/S 736 mmHg 83%
    02:00 +11°C° 0 mm 4 m/S 737 mmHg 81%
    03:00 +9°C° 0 mm 5 m/S 737 mmHg 78%
    04:00 +8°C° 0 mm 4 m/S 738 mmHg 77%
    05:00 +7°C° 0 mm 4 m/S 739 mmHg 76%
    06:00 +6°C° 0 mm 4 m/S 740 mmHg 75%
    07:00 +8°C° 0 mm 4 m/S 741 mmHg 66%
    08:00 +10°C° 0 mm 4 m/S 742 mmHg 58%
    09:00 +12°C° 0 mm 4 m/S 743 mmHg 49%
    10:00 +13°C° 0 mm 4 m/S 743 mmHg 46%
    11:00 +14°C° 0 mm 3 m/S 743 mmHg 43%
    12:00 +16°C° 0 mm 3 m/S 743 mmHg 39%
    13:00 +17°C° 0 mm 2 m/S 743 mmHg 37%
    14:00 +18°C° 0 mm 2 m/S 743 mmHg 34%
    15:00 +18°C° 0 mm 2 m/S 743 mmHg 31%
    16:00 +17°C° 0 mm 2 m/S 744 mmHg 35%
    17:00 +16°C° 0 mm 2 m/S 744 mmHg 39%
    18:00 +15°C° 0 mm 2 m/S 745 mmHg 43%
    19:00 +13°C° 0 mm 2 m/S 745 mmHg 50%
    20:00 +10°C° 0 mm 2 m/S 746 mmHg 58%
    21:00 +8°C° 0 mm 3 m/S 747 mmHg 66%
    22:00 +7°C° 0 mm 3 m/S 747 mmHg 68%
    23:00 +5°C° 0 mm 3 m/S 747 mmHg 70%

    22 April, Montag

    Zeit Temperatur Niederschläge Wind Luftdruck Luftfeuchtigkeit
    00:00 +5°C° 0 mm 2 m/S 748 mmHg 72%
    01:00 +5°C° 0 mm 2 m/S 748 mmHg 71%
    02:00 +4°C° 0 mm 2 m/S 748 mmHg 70%
    03:00 +4°C° 0 mm 2 m/S 748 mmHg 70%
    04:00 +4°C° 0 mm 2 m/S 749 mmHg 70%
    05:00 +3°C° 0 mm 2 m/S 749 mmHg 69%
    06:00 +3°C° 0 mm 2 m/S 749 mmHg 69%
    07:00 +6°C° 0 mm 2 m/S 750 mmHg 61%
    08:00 +8°C° 0 mm 2 m/S 750 mmHg 53%
    09:00 +10°C° 0 mm 2 m/S 750 mmHg 44%
    10:00 +13°C° 0 mm 2 m/S 750 mmHg 42%
    11:00 +14°C° 0 mm 2 m/S 749 mmHg 39%
    12:00 +16°C° 0 mm 2 m/S 749 mmHg 37%
    13:00 +16°C° 0 mm 3 m/S 749 mmHg 38%
    14:00 +14°C° 0 mm 4 m/S 749 mmHg 40%
    15:00 +14°C° 0 mm 4 m/S 749 mmHg 41%
    16:00 +12°C° 0 mm 4 m/S 749 mmHg 45%
    17:00 +10°C° 0 mm 4 m/S 750 mmHg 49%
    18:00 +7°C° 0 mm 4 m/S 750 mmHg 53%
    19:00 +5°C° 0 mm 3 m/S 751 mmHg 56%
    20:00 +4°C° 0 mm 3 m/S 752 mmHg 58%
    21:00 +2°C° 0 mm 3 m/S 752 mmHg 61%
    22:00 +3°C° 0 mm 2 m/S 753 mmHg 62%
    23:00 +3°C° 0 mm 2 m/S 753 mmHg 63%

    23 April, Dienstag

    Zeit Temperatur Niederschläge Wind Luftdruck Luftfeuchtigkeit
    00:00 +3°C° 0 mm 2 m/S 753 mmHg 63%
    01:00 +2°C° 0 mm 2 m/S 754 mmHg 64%
    02:00 +2°C° 0 mm 2 m/S 754 mmHg 65%
    03:00 +2°C° 0 mm 1 m/S 754 mmHg 66%
    04:00 +1°C° 0 mm 2 m/S 754 mmHg 65%
    05:00 +2°C° 0 mm 2 m/S 755 mmHg 64%
    06:00 +2°C° 0 mm 2 m/S 755 mmHg 63%
    07:00 +4°C° 0 mm 2 m/S 755 mmHg 54%
    08:00 +7°C° 0 mm 2 m/S 755 mmHg 45%
    09:00 +9°C° 0 mm 2 m/S 755 mmHg 36%
    10:00 +11°C° 0 mm 3 m/S 755 mmHg 34%
    11:00 +12°C° 0 mm 3 m/S 754 mmHg 32%
    12:00 +14°C° 0 mm 3 m/S 754 mmHg 30%
    13:00 +14°C° 0 mm 3 m/S 753 mmHg 31%
    14:00 +14°C° 0 mm 3 m/S 753 mmHg 31%
    15:00 +14°C° 0 mm 3 m/S 752 mmHg 31%
    16:00 +13°C° 0 mm 3 m/S 752 mmHg 35%
    17:00 +11°C° 0 mm 3 m/S 752 mmHg 39%
    18:00 +9°C° 0 mm 3 m/S 752 mmHg 43%
    19:00 +8°C° 0 mm 3 m/S 752 mmHg 48%
    20:00 +6°C° 0 mm 2 m/S 752 mmHg 52%
    21:00 +5°C° 0 mm 2 m/S 752 mmHg 57%
    22:00 +4°C° 0 mm 2 m/S 752 mmHg 59%
    23:00 +5°C° 0 mm 1 m/S 752 mmHg 62%
    Mehr zeigen